Погода в Малоярославеце

Погода в Малоярославеце : погода сейчас, прогноз погоды и архив. Всё, что Вы хотите узнать о погоде в Малоярославеце!

Хотите узнать прогноз погоды в Малоярославеце? Тогда Вам сюда: Погода в Малоярославеце

Поиск расширенной информации на нашем сайте:

Другие новости

Новости СМИ2

Главная страница сайта

Новости сайта

02.10.2013

Напоминаем, что на нашем новом сайте вы можете получить высокодетализированные прогнозы погоды по пунктам России, СНГ и мира (включающие важные для авиации метеовеличины, такие как направление и скорость ветра, видимость, явления погоды, количество и форма облачности, нижняя и верхняя граница облачности), а также ознакомиться с разнообразными материалами по авиационной метеорологии и подборкой полезных ссылок на эту тему.

Сайт Метеоцентр.Азия посвящён разработке технологий оптимизации авиаметеорологического обслуживания, включая проектирование и перспективное создание нескольких автоматизированных авиаметеорологических систем:
- система выпуска высокодетальных прогностических карт явлений погоды для нижнего воздушного пространства по России и ближнему зарубежью;
- система верификации прогнозов TAF (выпускаемых синоптиками официальных АМСГ РФ и ближнего зарубежья) и AUTOTAF (выпускаемых сайтом Метеоцентр.Азия) - выявление ошибок, онлайн-сопоставление с фактической погодой METAR, автоматическое внесение коррективов в прогнозы при резком отклонении фактической погоды от прогноза, подсчёт оправдываемости прогнозов по элементам и в целом;
- система обработки, анализа и отображения авиаметеорологической информации для применения провайдерами метеорологической информации.

Рекомендуем: http://www.usadba22.ru/ купить дачный участок в рассрочку.

Погода в Малоярославеце - сегодня

Время (UTC), дата Ветер
(°,м/с) 
Видим.   Явления Облачность Т
(°С)
Тd
(°С)
f(%) Тe
(°С)
Pmin
(гПа)
dP
(гПа)
Po
(мм)
O2
(г/м3)
Тmin Tmax R s Состояние
почвы
03 20.04.17 340 (С) 20000 м    9/0 средняя 
[Ac lent]
-1.3 -8.4 58 -2  1026.8  751  305  -2         
06 20.04.17 360 (С) 20000 м    9/0 средняя 
[Ac trans]
+1 -9.8 44 -1  1026.6  -0.1  751  303  -2         
09 20.04.17 350 (С) 20000 м    9/9 480 м 
[Sc]
+2.5 -11.5 35 +1  1026.1  -0.3  751  301           
12 20.04.17 340 (С) 5-10{11}  20000 м    4/4 600 м 
[Cu Sc]
+4.4 -12.4 28 +2  1024.3  -1.6  750  298           
15 20.04.17 350 (С) 4{10}  20000 м    3/0 средняя, верхняя 
[Ac trans|Ci fib]
+4.1 -12.4 29 +2  1023.5  -0.9  749  298           
18 20.04.17 270 (З) н/о    ясно 
+0.7 -11.9 38 +1  1023.8  749  302    +5       
21 20.04.17 200 (Ю) н/о    ясно 
-3.6 -8.4 69 -3  1023.4  -0.7  749  307           
00 21.04.17 200 (Ю) н/о    ясно 
-3.5 -9.1 65 -3  1022.3  -1  748  306           
03 21.04.17 190 (Ю) 20000 м    3/0 верхняя 
[Ci fib]
-3.8 -9.1 67 -5  1021.3  -1.1  747  306  -4.7         
06 21.04.17 210 (ЮЗ) 20000 м    3/0 верхняя 
[Ci fib]
+3.3 -8.6 41 +3  1019.4  -1.2  746  298  -4.7         
09 21.04.17 220 (ЮЗ) 5-10{10}  20000 м    4/0 верхняя 
[Ci fib]
+6.3 -11.8 26 +4  1015.3  -3.7  743  294           
12 21.04.17 220 (ЮЗ) 5-10{12}  20000 м    10/0 средняя 
[As trans]
+7.9 -11.2 24 +6  1010.8  -4.3  740  291           
15 21.04.17 210 (ЮЗ) 4{13}  20000 м    10/0 средняя 
[As trans]
+7.9 -11.2 24 +7  1007.8  -0.3  738  290           
18 21.04.17 220 (ЮЗ) 2{10}  н/о    8/0 средняя 
[Ac trans]
+7 -9.8 29 +7  1005.9  -1.8  737  290    +8.8       
21 21.04.17 210 (ЮЗ) н/о    10/0 средняя 
[As op]
+5 -7.9 39 +5  1003.9  -2.2  735  292           
00 22.04.17 190 (Ю) н/о    10/0 средняя 
[As op]
+4.2 -4.8 52 +5  1001.6  -2.3  733  291           
03 22.04.17 200 (Ю) 20000 м    10/0 средняя 
[As op]
+3.5 -3.9 58 +4  999.1  -2.5  731  291  +3.5         
06 22.04.17 220 (ЮЗ) 20000 м    10/0 средняя 
[As op]
+5.4 +0.5 71 +4  998.7  -0.2  731  289  +3.5        мокрая 
09 22.04.17 200 (Ю) 20000 м    10/10 600 м 
[Sc]
+7.9 +1.3 63 +7  996.9  -1.5  730  286           
12 22.04.17 190 (Ю) 4-11{11}  4000 м  слаб. ливневой дождь  10/10 330 м кучево-дожд. 
[Cb cap]
+7.1 +4.6 84 +6  994.7  -2.2  728  285           
15 22.04.17 230 (ЮЗ) 5{12}  20000 м  {ливн. осадки}  8/8 600 м 
[Cu Sc]
+6.3 +3.2 81 +4  993.7  -1.1  728  286         
18 22.04.17 230 (ЮЗ) 3{14}  н/о  {ливн. осадки}  4/0 средняя 
[Ac trans]
+3 +1.2 88 +2  997.2  3.1  730  291    +8.6     
21 22.04.17 210 (ЮЗ) н/о    ясно 
+2.1 +0.2 87 +1  998.7  1.4  731  292           
00 23.04.17 230 (ЮЗ) н/о    ясно 
+1.1 -1.5 83 999.9  1.1  732  294           
03 23.04.17 230 (ЮЗ) 20000 м    9/9 630 м 
[Sc]
+1.7 -1.7 78 1000.1  0.3  732  293  +0.7         
Время (UTC), дата Ветер
(°,м/с) 
Видим.   Явления Облачность Т
(°С)
Тd
(°С)
f(%) Тe
(°С)
Pmin
(гПа)
dP
(гПа)
Po
(мм)
O2
(г/м3)
Тmin Tmax R s Состояние
почвы

Для получения пояснительной информации подведите курсор к названию столбца.

ПОГОДА в Малоярославеце - архив

Всё, что Вы хотите узнать о погоде в Малоярославеце - удобно и подробно!

Выберите нужную дату (начиная с 1 января 2015* года) и нажмите кнопку "Найти".
Будут отображены архивные сводки погоды по пункту Малоярославец, начиная с указанной даты.


Отображать данные в формате CSV (для использования в таблицах Excel)


Внимание! Наш архив погоды предназначен исключительно для личного некоммерческого использования в познавательных целях. Если Вам необходимы официальные справки о состоянии погоды (для производственных, юридических, коммерческих и т.п. целей), обращайтесь в органы Росгидромета.

*Примечание: данная дата относится к архиву по метеостанциям СССР (Россия, СНГ, Балтия).
Архив по метеостанциям Зарубежной Европы и Азии (кроме Китая) хранится 10 дней, по другим регионам земного шара (Китай, Африка, Америка, Австралия, Океания) - 1 день.

Малоярославец - район местоположения метеостанции


Название, широта, долгота, высота метеостанции:
Малоярославец 55°ш. 36.5°д. 197 м над ур. моря [Российская Федерация]

Дополнительная информация

В oтличие oт бoльшинства пoгoдных сайтoв мы публикуем пoдрoбную метеoинфoрмацию в детальнoм прoфессиoнальнoм фoрмате.

Характеристики температуры и влажнoсти вoздуха измеряются на высoте 2 м в тени вдали oт зданий и деревьев.
Скoрoсть ветра измеряется на высoте 10 м (на урoвне рoста челoвека скoрoсть ветра ниже в 1.5-2 раза). Если метеoстанция нахoдится в гoрoде или в лесу, тo скoрoсть ветра занижена на 2-4 м/с пo сравнению с oткрытым местoм. Скoрoсть ветра над акватoриями крупных рек и oзёр, а также на вершинах хoлмoв на 2-5 м/с выше, чем в oбычных услoвиях.
Атмoсфернoе давление в разных тoчках местнoсти мoжет значительнo oтличаться oт давления на метеoстанции, в зависимoсти oт услoвий рельефа (при пoдъёме на 10 м давление пoнижается примернo на 1 мм рт.ст.).